Weather History for Maxwell AFB, AL

Change the Weather History Date:

Thursday, January 16, 2014

  Actual Average Record
Temperature  
Mean Temperature 37 °F -  
Max Temperature 50 °F 56 °F 69 °F (1999)
Min Temperature 24 °F 36 °F 21 °F (2009)
Degree Days  
Heating Degree Days 28    
Moisture  
Dew Point 19 °F    
Average Humidity 51    
Maximum Humidity 77    
Minimum Humidity 28    
Precipitation  
Precipitation 0.00 in - - ()
Sea Level Pressure  
Sea Level Pressure 30.12 in    
Wind  
Wind Speed 4 mph (SW)    
Max Wind Speed 9 mph    
Max Gust Speed -    
Visibility 10 miles    
Events      
Averages and records for this station are not official NWS values.
T = Trace of Precipitation, MM = Missing Value Source: NWS Daily Summary

Daily Weather History Graph

Daily Weather History Graph

Search for Another Location

Airport:

Trip Planner

Search our weather history database for the weather conditions in past years. The results will help you decide how hot, cold, wet, or windy it might be!

Date:

Astronomy

Jan. 16, 2014 Rise Set
Actual Time 6:46 AM CST 5:03 PM CST
Civil Twilight 6:20 AM CST 5:30 PM CST
Nautical Twilight 5:50 AM CST 6:00 PM CST
Astronomical Twilight 5:20 AM CST 6:30 PM CST
Moon 5:49 PM CST (1/16) 6:44 AM CST (1/16)
Length of Visible Light 11h 10m
Length of Day
10h 17m
Full, 100% of the Moon is Illuminated
Jan 16
Full
Jan 23
Last Quarter
Jan 30
New
Feb 6
First Quarter
Feb 14
Full

Hourly Weather History & Observations

Time (CST) Temp. Windchill Dew Point Humidity Pressure Visibility Wind Dir Wind Speed Gust Speed Precip Events Conditions
12:58 AM 31.5 °F 24.9 °F 14.5 °F 50% 30.16 in 10.0 mi WNW 6.9 mph - N/A   Clear
1:58 AM 28.9 °F 23.9 °F 15.3 °F 57% 30.15 in 10.0 mi NW 4.6 mph - N/A   Clear
2:58 AM 28.8 °F - 15.4 °F 58% 30.15 in 10.0 mi WNW 2.3 mph - N/A   Clear
3:58 AM 26.4 °F - 18.0 °F 70% 30.17 in 10.0 mi West 2.3 mph - N/A   Clear
4:58 AM 25.9 °F 21.7 °F 16.9 °F 69% 30.17 in 10.0 mi West 3.5 mph - N/A   Clear
5:58 AM 24.8 °F - 18.0 °F 75% 30.17 in 10.0 mi WSW 2.3 mph - N/A   Clear
6:58 AM 24.6 °F - 18.3 °F 77% 30.19 in 10.0 mi WSW 1.2 mph - N/A   Clear
7:58 AM 29.8 °F - 20.3 °F 68% 30.19 in 10.0 mi WNW 1.2 mph - N/A   Clear
8:58 AM 33.3 °F - 20.3 °F 59% 30.22 in 10.0 mi Variable 2.3 mph - N/A   Clear
9:58 AM 36.7 °F - 15.8 °F 43% 30.22 in 10.0 mi Variable 2.3 mph - N/A   Clear
10:58 AM 40.3 °F 35.5 °F 15.6 °F 37% 30.17 in 10.0 mi SW 6.9 mph - N/A   Clear
11:58 AM 43.5 °F 39.4 °F 16.5 °F 34% 30.15 in 10.0 mi West 6.9 mph - N/A   Clear
12:58 PM 45.5 °F 41.3 °F 15.8 °F 30% 30.09 in 10.0 mi SW 8.1 mph - N/A   Clear
1:58 PM 48.0 °F - 16.5 °F 29% 30.07 in 10.0 mi SW 4.6 mph - N/A   Clear
2:58 PM 49.6 °F - 17.2 °F 28% 30.05 in 10.0 mi South 8.1 mph - N/A   Clear
3:58 PM 50.0 °F - 18.1 °F 28% 30.04 in 10.0 mi SSW 9.2 mph - N/A   Clear
4:58 PM 47.7 °F - 19.6 °F 33% 30.04 in 10.0 mi South 4.6 mph - N/A   Clear
5:58 PM 43.3 °F 40.7 °F 21.2 °F 41% 30.06 in 10.0 mi South 4.6 mph - N/A   Clear
6:58 PM 42.6 °F 39.9 °F 21.4 °F 43% 30.04 in 10.0 mi South 4.6 mph - N/A   Clear
7:58 PM 41.2 °F - 22.1 °F 47% 30.07 in 10.0 mi South 2.3 mph - N/A   Clear
8:58 PM 36.5 °F - 23.7 °F 60% 30.07 in 10.0 mi South 2.3 mph - N/A   Clear
9:58 PM 40.3 °F - 23.9 °F 52% 30.07 in 10.0 mi SSW 2.3 mph - N/A   Clear
10:58 PM 35.2 °F 32.4 °F 24.8 °F 66% 30.06 in 10.0 mi South 3.5 mph - N/A   Mostly Cloudy
11:58 PM 34.2 °F 30.0 °F 27.0 °F 75% 30.04 in 10.0 mi South 4.6 mph - N/A   Mostly Cloudy